Погода в Польяново

Россия / Новосибирская область     54°33′37″N   75°54′18″E
темп.,
°C
ветер,
м/с
пор.,
м/с
влажн.,
%
обл.,
%
осадки,
мм/ч
давл.,
гПа
погр.,
м
11 апреля, вс
вс1101:00+1в4691100 0.0 1042325
04:000всв3592100 0.0 1042171
07:00+1всв3489100 0.0 1042107
10:00+1всв3397100 0.0 104356
13:00+1всв22100100 0.0 104215
16:00+2св22100100 0.0 104223
19:00+2св119892 0.0 104214
22:00−2ююв229850 0.0 104122
12 апреля, пн
пн1201:00−1юз239699 0.0 1039212
04:00−1зюз3494100 0.0 1038229
07:00−3зюз3497100 0.0 103865
10:00−1зюз3694100 0.0 1036160
13:00+1юз4810084 0.0 1035210
16:00+2зюз59100100 0.0 1034237
19:00+3зюз38100100 0.0 1033134
22:00+2з3691100 0.0 103397
13 апреля, вт
вт1301:00+2сз38100100 0.6 1033186
04:00+1ссз3698100 0.0 103499
07:000ссз37966 0.0 1036113
10:00+2ссз36890 0.0 1037196
13:00+5сз46734 0.0 1038599
16:00+7сз57625 0.0 1038833
19:00+6сз47700 0.0 1038264
22:00+3зсз347817 0.0 103850
14 апреля, ср
ср1401:00+2зсз34846 0.0 103842
04:00+2з34845 0.0 103748
07:00+2з348442 0.0 103661
10:00+5з4776100 0.0 1036254
13:00+9зюз6857100 0.0 1033661
16:00+11з6845100 0.0 1031949
19:00+11з5953100 0.0 1029323
22:00+8з486763 0.0 1028132
15 апреля, чт
чт1501:00+6з477497 0.0 102799
04:00+5з457954 0.0 102570
07:00+4з34845 0.0 102452
10:00+8з35760 0.0 1024206
13:00+13з45670 0.0 1022574
16:00+16з456120 0.0 10211174
19:00+16з46603 0.0 1019807
22:00+12з33745 0.0 101932